Accueil
METAR-TAF:

METAR-TAF

Aéroports :

Prato Nevoso, Italie

Monte Malanotte

latitude: 44-15N, longitude: 007-48E, altitude: 1741 m

Observation

Le bulletin a été fait il y a 1 heure et 37 minutes, à 17:55 UTC
Vent 4 kt de sud-ouest
Température 1°C
Humidité 86%
Pression 1011 hPa
Visibilité: 8000 m

METAR: LIMY 121755Z 23004KT 8000 NSC 01/M01 Q1011 RMK SKC VAL FOSCHIA SKC SUP VIS MIN 8000

Heure: 20:32 (19:32 UTC)


TAF: absent

Observations et prévisions météorologiques de plus de 4000 aéroports (messages METAR et TAF).

Les stations disponibles sont représentées par des disques jaunes et rouges sur la carte.

Passer la souris dessus pour voir le nom de la station.

Cliquer dessus pour voir les observations et prévisions météorologiques.

Pour changer de carte: cliquez sur les boutons verts avec une croix noire pour zoomer, sur le bouton vert avec un tiret pour effectuer un zoom arrière, ou sur les flèches vertes pour les cartes adjacentes.


METAR-TAF: